Siga o Apolo11 no Facebook   Siga o Apolo11 no Twiiter
Ciência, Espaço e Tecnologia




Elementos Keplerianos formato Two Line

Para que um programa de rastreio possa saber a localização exata de qualquer satélite no espaço e assim poder rastreá-lo corretamente, é necessário que ele seja carregado com algumas informações.

Estas informações são chamadas de Elementos Orbitais ou Elementos Keplerianos e consistem em 2 linhas com dezenas de números. Esses números nada mais são que os parâmetros orbitais do satélite, tais como altitude, atitude, excentricidade da órbita, número de órbitas por dia, etc.

Com base nestas informações o programa é capaz de determinar com bastante exatidão a posição de qualquer satélite no espaço e nos informar em qual horário este estará dentro do alcance de nossa estação. Para que isso seja feito com precisão é necessário que os dados estejam sempre bem atualizadas.

Devido aos parâmetros orbitais serem descritos em 2 linhas, estes formato é também conhecido internacionalmente por 2line (leia-se Two Line”).

Para atualizar seu programa de rastreio basta copiar os dados disponibilizados e fornece-los ao programa. Nossos elementos orbitais são atualizados diariamente.

NOAATodos os satélites ambientais da série NOAA
30 DiasSatélites lançados nos últimos 30 dias
ISSSatélites e foguetes relacionados à Estação Espacial Internacional
HAMSatélites construídos por radiomadores
CUBESatélites tipo cubo, com 10 centímetros de lado
METEOSatélites voltados à previsão do tempo
EDUSatélites construídos e operados por universidades
VIS100 satélites mais brilhantes que podem ser vistos a olho nú



Últimos Lançamentos
SOYUZ-TMA 09M           
1 39170U 13025A   13149.11632458  .00010281  00000-0  18396-3 0    37
2 39170  51.6489 202.9048 0009929  10.2269  92.6265 15.50570246    37
SES-6                   
1 39172U 13026A   13166.09466502 -.00000207  00000-0  00000+0 0    83
2 39172   0.1237 285.4011 0017567 289.2322  56.5612  1.00155529   117
2013-026C               
1 39174U 13026C   13167.66759501 -.00000159  00000-0  00000+0 0   191
2 39174  50.7893  30.5382 5189567 179.5533 181.3138  5.23321757   698
ATV-4 (ALBERT EINSTEIN) 
1 39175U 13027A   13166.62319444  .00005748  00000-0  10556-3 0   577
2 39175  51.6483 116.0964 0010829  73.3727 265.7013 15.50799671  1533
COSMOS 2486             
1 39177U 13028A   13168.17709257  .00000027  00000-0  18146-4 0   419
2 39177  98.3011 243.5794 0013021 290.4115  69.5708 14.50698543  1386
SL-4 R/B                
1 39178U 13028B   13167.17297292  .00567194  24242-5  63639-3 0   283
2 39178  98.3090 243.7064 0331619  49.8564 313.1237 15.52171464  1269
SHENZHOU 10 (SZ-10)     
1 39179U 13029A   13166.68880075  .00070324  00000-0  38205-3 0   137
2 39179  42.7792   8.5538 0007912 315.6767 138.3217 15.79028739   652
CZ-2F R/B               
1 39180U 13029B   13167.96410557  .01128799  86635-5  47557-3 0   207
2 39180  42.7827 359.3019 0061205 174.0506 186.1103 16.17120218   863
CZ-2F DEB               
1 39181U 13029C   13167.89214649  .01913765  88221-5  61688-3 0   124
2 39181  42.7692 359.2832 0034447 124.7905 237.9302 16.23431426   891
CZ-2F DEB               
1 39182U 13029D   13163.96379522  .08368021  80369-5  53395-2 0    59
2 39182  42.9325  25.0854 0153777 149.6267 213.4754 15.95776066   254
CZ-2F DEB               
1 39183U 13029E   13163.52251063  .07753652  80191-5  59069-2 0    55
2 39183  42.9701  27.7205 0168046 147.6493 214.4393 15.90899391   179
CZ-2F DEB               
1 39184U 13029F   13163.36850228  .06454560  79653-5  59782-2 0    43
2 39184  42.6576  29.3875 0201043 119.7540  59.3929 15.81829911   156
CZ-2F DEB               
1 39185U 13029F   13163.99123383  .06658435  79390-5  51149-2 0    42
2 39185  42.6030  25.6526 0182439 129.0947 356.6158 15.87835902   257


IMAGENS DE SATÉLITES !    Clique e conheça nosso Vídeo Workshop de sensoriamento remoto e imagens meteorológicas.
Apolo11.com - Todos os direitos reservados - 2001 - 2013
Política de Privacidade

"As leis são como teias de aranha. Se alguma pobre criatura fraca é apanhada por elas, fica apreisonada, mas uma outra maior pode rompê-las. E ficar livre" - Solon - 5 séculos antes de Cristo